Weather History for KMKG - October, 2013

Change the Weather History Date:

Friday, October 25, 2013

  Actual Average Record
Temperature  
Mean Temperature 46 °F 48 °F  
Max Temperature 52 °F 55 °F 76 °F (2012)
Min Temperature 39 °F 40 °F 21 °F (1960)
Degree Days  
Heating Degree Days 19 17  
Month to date heating degree days 261 339  
Since 1 July heating degree days 403 512  
Cooling Degree Days 0 0  
Month to date cooling degree days 10 2  
Year to date cooling degree days 626 563  
Moisture  
Dew Point 29 °F    
Average Humidity 59    
Maximum Humidity 76    
Minimum Humidity 42    
Precipitation  
Precipitation 0.01 in 0.10 in 1.00 in (1898)
Month to date precipitation 3.33 2.48  
Year to date precipitation 36.53 26.95  
Snow  
Snow 0.00 in 0.00 in 1.60 in (1962)
Month to date snowfall T 0.1  
Since 1 July snowfall T 0.1  
Since 1 September snowfall T 0.1  
Snow Depth 0.00 in    
Sea Level Pressure  
Sea Level Pressure 30.22 in    
Wind  
Wind Speed 14 mph (West)    
Max Wind Speed 36 mph    
Max Gust Speed 49 mph    
Visibility 10 miles    
Events Rain    
T = Trace of Precipitation, MM = Missing Value Source: NWS Daily Summary

Daily Weather History Graph

Daily Weather History Graph

Search for Another Location

Airport or City:

Trip Planner

Search our weather history database for the weather conditions in past years. The results will help you decide how hot, cold, wet, or windy it might be!

Date:

Astronomy

Oct. 25, 2013 Rise Set
Actual Time 8:11 AM EDT 6:46 PM EDT
Civil Twilight 7:42 AM EDT 7:15 PM EDT
Nautical Twilight 7:08 AM EDT 7:48 PM EDT
Astronomical Twilight 6:35 AM EDT 8:21 PM EDT
Moon No Moon Rise 1:53 PM EDT (10/25)
Length of Visible Light 11h 33m
Length of Day
10h 34m
Waning Gibbous, 62% of the Moon is Illuminated
Oct 25
Waning Gibbous
Oct 26
Last Quarter
Nov 3
New
Nov 10
First Quarter
Nov 17
Full

Hourly Weather History & Observations

Time (EDT) Temp. Windchill Dew Point Humidity Pressure Visibility Wind Dir Wind Speed Gust Speed Precip Events Conditions
12:55 AM 39.0 °F 32.3 °F 32.0 °F 76% 30.23 in 10.0 mi North 10.4 mph - N/A   Overcast
1:55 AM 39.9 °F 33.4 °F 30.9 °F 70% 30.24 in 10.0 mi North 10.4 mph - 0.00 in Rain Light Rain
2:55 AM 41.0 °F 39.0 °F 32.0 °F 70% 30.25 in 10.0 mi NW 3.5 mph - 0.01 in   Overcast
3:55 AM 41.0 °F 35.2 °F 30.9 °F 67% 30.25 in 10.0 mi NNW 9.2 mph - 0.00 in   Overcast
4:55 AM 39.0 °F 34.0 °F 30.9 °F 73% 30.26 in 10.0 mi NNW 6.9 mph - N/A   Mostly Cloudy
5:55 AM 39.0 °F 33.4 °F 30.0 °F 70% 30.28 in 10.0 mi NNW 8.1 mph - N/A   Scattered Clouds
6:55 AM 39.9 °F 37.8 °F 28.0 °F 63% 30.30 in 10.0 mi WNW 3.5 mph - N/A   Scattered Clouds
7:55 AM 39.9 °F 36.7 °F 28.0 °F 63% 30.31 in 10.0 mi NW 4.6 mph - N/A   Scattered Clouds
8:55 AM 43.0 °F 40.3 °F 28.9 °F 58% 30.32 in 10.0 mi WNW 4.6 mph - N/A   Mostly Cloudy
9:55 AM 44.1 °F 39.0 °F 28.0 °F 53% 30.34 in 10.0 mi WNW 9.2 mph - N/A   Mostly Cloudy
10:55 AM 44.1 °F 39.5 °F 28.9 °F 55% 30.34 in 10.0 mi WNW 8.1 mph - N/A   Mostly Cloudy
11:55 AM 45.0 °F 39.3 °F 28.0 °F 52% 30.33 in 10.0 mi West 11.5 mph - 0.00 in   Overcast
12:55 PM 48.0 °F - 28.9 °F 48% 30.31 in 10.0 mi West 9.2 mph 18.4 mph N/A   Mostly Cloudy
1:55 PM 46.0 °F 41.4 °F 27.0 °F 47% 30.30 in 10.0 mi West 9.2 mph - N/A   Overcast
2:55 PM 45.0 °F 39.3 °F 26.1 °F 48% 30.27 in 10.0 mi WSW 11.5 mph 18.4 mph N/A   Mostly Cloudy
3:55 PM 46.0 °F 39.9 °F 27.0 °F 47% 30.24 in 10.0 mi WSW 13.8 mph 19.6 mph N/A   Mostly Cloudy
4:55 PM 46.0 °F 39.9 °F 28.0 °F 50% 30.22 in 10.0 mi SW 13.8 mph - N/A   Mostly Cloudy
5:55 PM 46.9 °F - 30.0 °F 52% 30.17 in 10.0 mi SW 21.9 mph 26.5 mph N/A   Mostly Cloudy
6:55 PM 48.0 °F - 30.9 °F 52% 30.13 in 10.0 mi SW 19.6 mph 26.5 mph N/A   Mostly Cloudy
7:55 PM 48.9 °F - 30.0 °F 48% 30.09 in 10.0 mi SW 20.7 mph 31.1 mph N/A   Mostly Cloudy
8:55 PM 50.0 °F - 28.9 °F 44% 30.05 in 10.0 mi SW 21.9 mph 35.7 mph N/A   Scattered Clouds
9:55 PM 51.1 °F - 30.0 °F 44% 30.02 in 10.0 mi SW 27.6 mph 36.8 mph N/A   Overcast
10:55 PM 51.1 °F - 30.0 °F 44% 30.01 in 10.0 mi SW 26.5 mph 40.3 mph N/A   Overcast
11:55 PM 51.1 °F - 30.0 °F 44% 29.97 in 10.0 mi SW 29.9 mph 42.6 mph 0.00 in   Overcast